Weather History for KSAT - January, 2014

Change the Weather History Date:

Tuesday, January 28, 2014

  Actual Average Record
Temperature  
Mean Temperature 35 °F 53 °F  
Max Temperature 40 °F 64 °F 81 °F (1909)
Min Temperature 30 °F 41 °F 20 °F (1948)
Degree Days  
Heating Degree Days 30 13  
Month to date heating degree days 388 381  
Since 1 July heating degree days 1028 983  
Cooling Degree Days 0 0  
Month to date cooling degree days 1 0  
Year to date cooling degree days 1 0  
Moisture  
Dew Point 14 °F    
Average Humidity 44    
Maximum Humidity 58    
Minimum Humidity 29    
Precipitation  
Precipitation T in 0.06 in 1.17 in (1931)
Month to date precipitation 0.23 1.58  
Year to date precipitation 0.23 1.58  
Snow  
Snow 0.00 in - - ()
Month to date snowfall 0.1  
Since 1 July snowfall 0.1  
Snow Depth 0.00 in    
Sea Level Pressure  
Sea Level Pressure 30.33 in    
Wind  
Wind Speed 11 mph (North)    
Max Wind Speed 22 mph    
Max Gust Speed 28 mph    
Visibility 10 miles    
Events Rain    
T = Trace of Precipitation, MM = Missing Value Source: NWS Daily Summary

Daily Weather History Graph

Daily Weather History Graph

Search for Another Location

Airport or City:

Trip Planner

Search our weather history database for the weather conditions in past years. The results will help you decide how hot, cold, wet, or windy it might be!

Date:

Astronomy

Jan. 28, 2014 Rise Set
Actual Time 7:25 AM CST 6:08 PM CST
Civil Twilight 7:00 AM CST 6:33 PM CST
Nautical Twilight 6:31 AM CST 7:02 PM CST
Astronomical Twilight 6:03 AM CST 7:30 PM CST
Moon 5:05 AM CST (1/28) 4:02 PM CST (1/28)
Length of Visible Light 11h 33m
Length of Day
10h 43m
Waning Crescent, 7% of the Moon is Illuminated
Jan 28
Waning Crescent
Jan 30
New
Feb 6
First Quarter
Feb 14
Full
Feb 22
Last Quarter

Hourly Weather History & Observations

Time (CST) Temp. Windchill Dew Point Humidity Pressure Visibility Wind Dir Wind Speed Gust Speed Precip Events Conditions
12:51 AM 37.9 °F 29.2 °F 16.0 °F 41% 30.17 in 10.0 mi NNE 15.0 mph 19.6 mph N/A   Overcast
1:51 AM 37.0 °F 29.8 °F 18.0 °F 46% 30.17 in 10.0 mi North 10.4 mph 19.6 mph N/A   Overcast
2:51 AM 36.0 °F 27.1 °F 19.0 °F 50% 30.18 in 10.0 mi North 13.8 mph 20.7 mph N/A   Overcast
3:51 AM 36.0 °F 26.3 °F 16.0 °F 44% 30.18 in 10.0 mi NNE 16.1 mph 23.0 mph N/A   Overcast
4:51 AM 34.0 °F 24.6 °F 15.1 °F 46% 30.19 in 10.0 mi NNE 13.8 mph - 0.00 in   Overcast
5:51 AM 33.1 °F 22.2 °F 18.0 °F 54% 30.23 in 10.0 mi North 17.3 mph 21.9 mph N/A   Overcast
6:51 AM 32.0 °F 21.6 °F 15.1 °F 50% 30.28 in 10.0 mi North 15.0 mph 25.3 mph N/A   Overcast
7:16 AM 32.0 °F 21.2 °F 15.8 °F 51% 30.29 in 10.0 mi NNE 16.1 mph 20.7 mph 0.00 in Rain Light Freezing Rain
7:51 AM 30.9 °F 20.7 °F 19.9 °F 64% 30.30 in 8.0 mi North 13.8 mph - 0.00 in Rain Light Freezing Rain
8:51 AM 30.0 °F 20.5 °F 18.0 °F 61% 30.32 in 8.0 mi North 11.5 mph - 0.00 in Rain Light Freezing Rain
9:26 AM 30.2 °F 18.5 °F 17.6 °F 60% 30.37 in 10.0 mi North 17.3 mph - 0.00 in   Overcast
9:51 AM 30.9 °F 20.7 °F 18.0 °F 59% 30.38 in 10.0 mi North 13.8 mph - 0.00 in   Overcast
10:29 AM 32.0 °F 22.1 °F 17.6 °F 55% 30.39 in 10.0 mi NNE 13.8 mph - 0.00 in Rain Light Freezing Rain
10:51 AM 32.0 °F 22.1 °F 15.1 °F 50% 30.39 in 10.0 mi NNE 13.8 mph 24.2 mph 0.00 in   Mostly Cloudy
11:51 AM 32.0 °F 21.6 °F 10.0 °F 40% 30.38 in 10.0 mi North 15.0 mph - N/A   Overcast
12:51 PM 34.0 °F 24.6 °F 10.0 °F 37% 30.35 in 10.0 mi North 13.8 mph 21.9 mph N/A   Mostly Cloudy
1:51 PM 36.0 °F 29.0 °F 10.0 °F 34% 30.35 in 10.0 mi North 9.2 mph 20.7 mph N/A   Overcast
2:51 PM 35.1 °F 26.9 °F 10.0 °F 35% 30.35 in 10.0 mi North 11.5 mph - 0.00 in Rain Light Rain
3:47 PM 33.8 °F 24.3 °F 12.2 °F 41% 30.37 in 10.0 mi North 13.8 mph - 0.00 in   Light Ice Pellets
3:51 PM 33.1 °F 23.9 °F 12.9 °F 43% 30.36 in 10.0 mi North 12.7 mph - 0.00 in   Light Ice Pellets
4:38 PM 35.6 °F 27.5 °F 10.4 °F 35% 30.36 in 10.0 mi North 11.5 mph - 0.00 in Rain Light Rain
4:51 PM 36.0 °F 28.5 °F 10.9 °F 36% 30.35 in 10.0 mi North 10.4 mph - 0.00 in Rain Light Rain
5:51 PM 37.9 °F 30.9 °F 10.9 °F 33% 30.35 in 10.0 mi NNE 10.4 mph - 0.00 in   Mostly Cloudy
6:51 PM 37.0 °F 31.0 °F 10.9 °F 34% 30.36 in 10.0 mi North 8.1 mph - N/A   Overcast
7:51 PM 37.9 °F 33.5 °F 10.9 °F 33% 30.38 in 10.0 mi North 5.8 mph - N/A   Overcast
8:51 PM 37.0 °F 31.6 °F 10.9 °F 34% 30.42 in 10.0 mi North 6.9 mph - N/A   Mostly Cloudy
9:51 PM 37.0 °F 30.4 °F 9.0 °F 31% 30.43 in 10.0 mi NNE 9.2 mph - N/A   Mostly Cloudy
10:51 PM 35.1 °F 32.2 °F 9.0 °F 34% 30.44 in 10.0 mi North 3.5 mph - N/A   Mostly Cloudy
11:51 PM 34.0 °F - 8.1 °F 34% 30.45 in 10.0 mi Calm Calm - N/A   Scattered Clouds